Temp
16 15 15 18 15 19 17 15 15 17 18 17 17 18 18 20 19 20 16 18 19 19 21 22 21 20 19 17 15 15 13 12 10 10 9 9 10 11 11 11 11 10 10 10
15 14 17 17 17 15 15 16 16 18 18 16 17 17 18 18 19 20 21 21 21 20 20 19 17 18 17 18 15 13 12 11 10 10 9 9 8 9 10 10 10 10 9 9
18 18 16 16 16 16 15 15 17 17 17 15 14 18 18 16 16 19 19 20 20 19 19 20 13 14 16 15 14 13 12 11 10 10 9 9 8 7 7 8 9 8 9 9
14 16 17 15 15 16 18 16 16 16 15 16 17 18 20 20 20 19 18 19 18 18 18 17 14 11 15 16 14 12 11 10 10 9 9 9 9 7 7 7 8 8 8 8
17 17 15 15 16 15 17 18 16 16 14 13 14 13 19 18 18 17 18 17 18 18 17 18 13 13 15 14 12 11 10 9 9 9 10 9 8 8 9 7 7 7 7 7
14 15 16 16 15 14 16 17 15 11 12 13 15 15 18 16 19 19 19 18 18 17 19 14 13 14 11 11 10 10 9 9 9 9 9 8 8 8 8 6 6 6 7 6
15 14 15 16 17 15 16 15 12 12 10 14 15 13 21 21 22 18 20 17 17 15 15 17 12 9 7 7 8 8 8 7 8 8 8 8 9 8 8 7 5 5 5 5
15 17 14 14 16 15 13 14 12 12 14 18 10 14 21 19 18 18 16 16 14 14 14 11 12 9 7 7 7 7 7 7 8 8 7 8 8 8 7 7 6 6 6 5
13 14 14 13 15 16 14 13 16 13 6 10 17 16 19 17 20 19 16 14 15 16 14 11 9 8 8 7 7 7 7 8 7 7 7 7 7 7 7 7 6 6 7 6
16 15 16 14 15 15 15 15 13 11 12 14 15 17 18 19 20 19 16 16 15 14 12 10 9 8 8 9 9 8 8 8 8 8 7 6 7 7 7 7 6 6 6 6
14 13 14 15 13 16 12 13 13 14 13 16 16 16 20 19 17 16 15 15 15 14 15 12 10 10 10 9 9 9 9 9 9 8 7 7 7 7 6 6 6 6 6 6
13 11 11 13 13 12 13 13 13 13 14 15 16 17 19 20 18 16 15 17 15 14 15 13 11 11 10 10 10 10 10 9 9 8 7 7 6 5 4 5 6 6 5 5
12 11 12 11 11 10 10 12 13 14 14 13 13 16 19 19 19 19 16 14 14 14 15 15 12 12 10 12 12 10 8 9 8 7 6 5 5 4 5 5 4 4 4 4
11 12 12 12 11 13 12 13 13 13 13 14 15 16 17 18 18 19 19 15 13 9 7 7 7 7 7 8 8 9 9 9 9 7 6 5 4 5 5 4 3 3 3 3
11 10 10 11 11 10 10 10 10 12 14 13 14 15 16 17 17 11 10 8 7 6 6 6 6 6 6 6 6 7 8 8 8 7 5 4 4 3 3 3 3 2 2 2
8 8 9 9 10 10 10 10 9 9 9 10 11 12 10 4 3 5 4 5 5 5 6 6 6 6 5 5 5 5 5 6 6 6 5 5 4 3 2 2 1 1 0 -0
6 7 7 7 9 8 8 9 11 12 11 8 8 3 2 3 2 3 2 4 4 5 5 5 5 5 4 4 4 4 3 3 3 3 5 4 4 2 1 1 -0 -1 -2 -2
6 5 5 6 6 5 9 9 7 7 3 3 3 2 2 2 3 4 4 4 3 3 4 4 4 3 3 3 2 2 1 2 2 2 2 2 2 1 0 -1 -2 -2 -2 -2
5 6 4 0 0 6 8 4 2 3 3 2 2 2 2 2 3 5 4 4 3 3 3 3 2 2 2 1 1 0 0 1 1 1 0 0 -0 -1 -2 -3 -3 -3 -3 -4
5 6 5 -2 2 2 3 2 3 4 4 2 1 2 0 0 1 2 3 2 2 1 0 0 0 1 1 0 0 0 -0 0 0 -1 2 1 -0 -1 -3 -3 -4 -4 -4 -5
-5 -6 -4 -7 -4 -1 -0 2 3 -1 1 2 1 0 -0 1 2 2 1 1 0 -1 -2 -2 -2 -2 -1 -1 -1 -1 -0 -0 -1 -0 -1 -0 -1 -2 -3 -4 -4 -4 -5 -6
-0 -5 -6 -8 -7 -2 2 3 2 1 2 2 1 1 0 -0 -0 0 -0 -1 -1 -2 -2 -2 -3 -3 -3 -3 -3 -3 -2 -1 -1 -1 -2 -3 -3 -3 -4 -5 -6 -6 -7 -7
-2 -0 -3 -2 -2 2 3 3 2 2 1 -0 0 -0 -1 -2 -2 -1 -3 -3 -3 -3 -3 -4 -5 -6 -5 -6 -6 -6 -6 -5 -3 -2 -3 -3 -5 -5 -5 -6 -7 -8 -8 -8
-0 2 -0 -2 3 2 2 2 2 2 1 0 -1 -2 -3 -3 -3 -3 -3 -3 -4 -4 -5 -5 -7 -7 -7 -8 -8 -8 -8 -7 -7 -5 -4 -5 -6 -7 -7 -8 -8 -9 -10 -9
1 -0 -1 -0 2 2 2 2 2 1 -1 -2 -3 -3 -4 -4 -4 -4 -5 -6 -6 -6 -6 -7 -8 -9 -9 -10 -10 -10 -10 -10 -9 -8 -5 -6 -7 -8 -9 -9 -9 -9 -9 -8
2 1 1 0 3 2 2 3 1 -1 -2 -4 -5 -5 -5 -5 -6 -6 -7 -7 -7 -8 -8 -9 -11 -11 -12 -12 -12 -12 -13 -13 -12 -11 -9 -6 -7 -9 -9 -9 -10 -9 -9 -9
Height
803 813 816 797 803 791 804 812 811 796 781 786 780 771 766 756 751 744 745 734 723 719 700 701 701 705 708 712 715 717 723 728 736 743 750 758 760 767 773 778 783 788 792 795
809 808 789 789 795 804 808 806 801 780 776 785 775 762 758 755 745 732 722 718 711 704 699 690 696 697 697 698 703 709 714 720 726 732 739 748 754 759 765 771 777 782 786 790
789 786 787 793 796 801 800 804 787 786 781 779 774 744 748 739 734 724 712 706 704 700 695 684 690 690 692 693 695 698 703 709 717 725 735 742 751 758 762 766 770 774 780 785
794 779 782 792 796 792 789 785 786 788 793 789 770 735 730 729 721 716 711 700 700 694 687 683 682 686 685 683 688 693 698 704 713 718 723 729 733 742 747 753 760 767 774 779
782 778 785 791 779 784 778 774 782 785 795 794 785 794 723 722 722 715 704 700 689 686 684 679 681 679 675 678 681 689 694 702 707 712 717 720 726 733 739 747 753 759 766 771
783 776 775 775 774 777 773 776 783 803 799 794 775 780 703 728 714 705 699 696 693 690 681 681 675 673 675 676 677 683 690 697 702 707 712 715 720 725 732 737 743 750 758 763
774 777 766 766 774 776 776 786 810 805 819 780 758 775 698 703 696 702 694 700 696 692 685 673 674 672 672 675 679 679 685 691 697 703 706 710 715 720 725 729 735 743 749 753
786 769 765 763 764 769 782 783 800 809 785 749 783 757 698 698 695 695 695 694 696 690 682 679 671 672 672 674 682 683 683 689 690 697 703 706 708 711 717 723 728 731 737 744
790 774 760 757 753 751 770 778 757 776 815 801 735 723 696 697 691 689 696 693 689 682 681 679 673 670 674 677 679 683 687 689 693 689 697 703 707 708 711 715 723 727 731 736
767 775 755 761 755 753 755 752 770 788 780 767 745 725 710 695 687 689 691 687 683 683 687 683 675 675 675 676 678 682 685 685 690 692 693 693 697 703 707 711 714 717 723 728
771 778 759 757 764 753 765 762 754 752 758 742 738 728 684 692 692 691 690 688 687 686 680 683 681 675 678 678 680 679 678 679 679 683 687 689 691 692 697 700 707 711 716 721
769 776 770 752 750 750 753 753 752 752 737 727 719 709 688 672 682 688 686 683 687 686 680 677 679 674 676 675 676 672 669 671 671 672 675 677 683 687 691 690 693 701 707 712
761 765 758 756 751 752 758 743 739 732 732 729 723 701 686 680 672 674 684 687 686 681 678 676 676 679 679 675 671 666 667 666 668 668 668 672 677 681 681 680 684 690 697 702
763 756 755 745 748 737 738 736 729 731 727 706 701 693 693 688 678 668 680 685 691 698 702 701 699 697 689 684 676 670 671 669 665 663 661 662 663 664 669 674 674 679 685 691
760 751 755 747 745 746 743 743 737 722 707 705 693 690 690 687 685 698 699 707 712 707 707 712 708 695 688 683 678 676 668 666 665 661 659 653 651 655 660 665 663 670 675 683
767 761 755 750 740 741 740 737 732 730 724 715 704 693 708 731 729 723 728 723 719 718 718 714 709 698 694 691 684 681 674 664 659 653 654 651 650 652 649 654 654 656 665 675
772 765 763 748 745 746 743 728 718 704 708 717 715 747 746 741 738 737 737 730 725 722 717 713 709 705 701 694 687 683 675 665 659 652 645 642 643 641 648 643 649 649 660 667
763 767 769 752 750 757 716 713 722 729 746 746 749 750 750 747 740 733 727 728 727 724 718 713 714 707 699 692 687 681 675 665 656 648 643 640 636 637 638 636 638 641 648 654
755 757 766 788 783 731 720 738 748 746 747 749 752 750 745 740 733 728 726 727 728 723 716 713 713 708 704 694 686 678 669 665 655 646 644 644 637 637 633 634 636 634 641 648
747 751 755 797 769 765 743 749 742 737 733 743 746 742 744 740 735 722 721 725 725 722 715 713 710 702 701 692 684 677 668 662 655 649 638 638 636 631 630 631 631 635 641 643
801 807 799 817 800 770 755 745 735 766 751 735 740 742 740 737 732 724 722 721 721 715 711 706 700 700 697 691 682 674 663 657 650 643 643 634 633 633 630 630 632 634 637 643
774 806 813 821 817 779 740 736 748 745 737 736 735 733 734 732 729 725 722 720 718 712 708 705 700 700 690 692 683 674 664 654 645 641 641 638 628 625 628 632 631 637 640 638
781 767 783 773 762 735 731 736 731 732 731 731 730 730 731 730 727 724 723 717 712 709 701 701 698 687 685 682 678 668 658 652 642 637 635 633 628 619 622 626 630 635 639 639
755 746 754 759 733 733 731 728 728 725 725 725 725 726 728 728 724 722 718 712 707 702 699 696 693 688 678 676 670 661 657 653 645 640 633 628 624 618 616 616 618 626 633 634
742 746 749 741 728 727 723 721 719 720 721 722 723 723 724 724 719 718 713 709 705 700 696 694 688 683 674 669 660 658 654 651 642 638 626 620 618 610 610 610 612 615 617 615
732 731 734 728 716 719 716 711 713 717 717 720 722 719 719 719 715 713 707 703 700 695 690 686 682 677 668 662 653 648 648 646 639 633 621 617 609 605 603 604 606 610 614 615
Wind_Speed
3 4 9 21 16 13 4 7 9 8 11 3 13 17 15 17 18 19 16 19 22 21 27 30 28 29 31 34 38 43 44 45 44 44 44 41 45 44 41 40 38 37 35 34
1 10 18 7 4 7 8 15 18 18 17 6 17 23 15 13 15 23 25 22 23 22 20 21 12 23 31 36 38 38 42 44 46 45 43 31 34 42 44 42 39 38 36 35
16 8 11 8 8 7 11 10 20 18 6 6 12 21 15 11 9 19 24 20 20 21 22 23 8 20 26 31 35 40 43 45 45 42 38 30 30 24 35 38 40 41 38 36
9 7 12 7 6 13 19 11 13 10 3 10 3 19 5 11 16 15 18 18 14 18 19 16 8 8 26 34 32 33 36 41 42 45 45 42 36 27 35 39 46 43 40 37
9 4 4 6 14 9 12 4 6 3 4 5 5 4 2 6 9 13 11 12 15 13 14 17 7 16 25 27 28 31 34 38 40 46 46 46 35 34 35 38 43 43 41 39
10 2 6 8 5 9 2 3 2 4 2 7 10 8 6 5 7 4 5 10 10 11 17 9 10 12 12 18 25 30 33 36 41 45 46 44 39 39 36 40 40 44 43 42
2 5 3 5 4 1 3 5 4 3 1 11 7 5 22 10 11 9 11 10 11 11 10 17 10 7 9 18 24 30 34 35 40 44 45 47 44 42 42 41 39 41 44 47
3 16 9 7 9 8 8 9 6 7 8 17 6 10 16 8 8 4 6 7 9 11 11 9 12 6 8 16 20 24 32 31 40 43 44 46 46 43 41 41 40 44 46 46
4 10 2 5 5 9 5 6 6 3 0 2 12 17 16 7 5 1 8 7 8 12 16 13 10 3 6 11 19 24 27 30 35 42 41 41 42 41 41 40 41 43 43 44
3 9 5 3 1 4 6 1 1 1 4 11 8 17 16 12 15 12 9 10 12 11 11 10 8 5 6 13 20 24 25 31 35 39 42 41 45 47 45 44 44 44 43 42
3 1 9 3 5 17 1 4 5 1 5 15 17 10 26 20 7 9 9 9 10 10 9 10 8 5 8 10 16 22 29 34 36 40 43 42 46 48 48 48 46 45 44 43
9 5 6 16 6 5 5 8 5 6 9 10 16 16 21 30 18 11 12 17 11 9 9 8 9 7 8 14 20 27 31 36 42 42 41 47 43 43 43 48 50 48 46 44
4 4 10 6 7 2 6 13 15 19 18 22 22 21 16 23 26 19 11 8 9 9 10 8 9 11 9 18 24 27 28 38 39 37 40 37 39 42 47 48 47 48 47 46
4 9 17 14 11 18 22 14 17 16 14 22 21 25 16 22 28 29 16 10 13 19 19 17 16 14 20 26 28 29 32 35 36 36 39 40 42 51 49 44 45 48 49 48
3 14 15 19 15 17 20 24 28 30 27 24 23 24 23 24 21 15 17 17 19 18 18 17 16 15 19 28 34 37 35 33 32 36 35 41 43 41 40 42 46 47 46 48
2 9 16 21 23 18 18 16 17 14 15 22 25 30 18 18 21 22 18 17 18 18 17 16 16 16 16 23 26 31 36 39 33 31 38 39 32 34 42 40 42 43 43 45
5 5 3 19 18 12 14 19 18 21 14 11 9 7 14 17 19 15 16 19 18 17 16 16 15 15 23 28 31 29 35 38 38 33 34 35 37 37 39 37 36 36 39 39
13 12 6 16 17 20 11 3 5 1 8 9 8 10 12 13 15 11 14 18 17 17 15 14 14 23 27 31 31 31 35 32 34 31 29 29 31 34 35 34 36 35 38 41
16 13 6 3 6 11 15 7 6 5 4 8 6 5 8 12 15 6 14 14 15 15 12 18 25 27 28 29 30 31 31 30 27 26 26 26 23 25 26 28 30 30 32 32
3 6 5 3 4 5 2 6 6 7 7 4 3 4 5 7 9 12 14 14 13 13 18 20 24 27 29 30 30 29 27 27 25 32 26 27 25 24 24 25 25 24 28 29
3 3 3 4 4 7 3 6 4 4 7 13 4 5 4 4 6 14 15 13 14 16 21 25 24 24 26 31 34 32 28 26 29 39 30 19 18 22 23 22 23 26 27 24
4 3 3 2 1 8 6 10 3 6 4 9 4 4 7 7 11 13 14 14 14 15 19 20 20 23 27 28 26 29 29 29 31 37 33 20 12 14 15 19 19 21 22 23
2 6 4 8 6 6 17 15 12 5 9 5 5 7 7 8 10 11 12 14 13 15 20 23 21 27 28 24 25 29 33 35 34 30 30 28 19 13 16 20 18 17 19 18
7 12 5 2 12 14 11 12 13 13 11 6 7 7 5 9 12 13 13 15 15 19 20 21 22 25 30 29 30 29 32 32 35 33 29 27 24 18 19 22 24 23 22 20
9 4 6 10 16 15 19 14 15 10 7 7 5 5 8 7 14 12 14 14 13 18 22 21 23 26 34 33 35 30 30 31 33 34 31 25 24 19 19 22 24 27 30 33
9 17 12 15 20 15 16 16 3 5 7 3 5 9 8 9 13 13 16 16 17 19 24 23 25 27 31 32 37 37 31 28 31 32 28 27 22 19 20 20 18 25 24 24
Wind_Direction
214 144 199 223 208 236 180 223 240 256 258 291 261 264 262 270 283 271 260 264 263 263 269 273 259 248 237 232 227 224 217 210 202 200 200 206 209 211 213 215 215 214 213 211
105 220 221 232 206 209 234 259 266 271 265 247 268 268 272 259 253 261 266 266 265 270 275 274 240 233 226 227 225 215 213 208 203 200 199 199 199 209 213 213 214 215 213 212
226 227 217 208 232 250 231 238 258 264 303 240 282 275 247 252 256 255 266 258 269 269 272 278 240 226 226 224 221 216 210 207 202 198 191 192 195 204 209 212 213 213 213 213
247 236 220 197 213 214 266 231 261 265 338 278 15 298 171 253 260 254 258 270 256 267 270 264 244 219 226 233 226 216 206 204 198 198 192 190 191 194 206 208 212 212 212 213
248 181 175 197 230 168 246 217 235 209 206 324 200 269 209 169 259 261 263 257 265 262 261 278 256 236 242 234 218 211 203 202 196 198 198 195 193 198 208 207 212 211 211 213
255 324 178 218 224 188 108 91 85 65 111 266 193 198 307 158 221 268 261 274 276 300 303 298 266 264 241 220 202 197 196 197 201 200 200 200 197 200 199 203 205 208 209 211
251 220 226 163 240 123 141 77 310 317 95 244 157 192 255 281 253 221 284 315 300 287 284 302 277 234 199 189 193 188 192 191 200 201 203 206 206 208 206 204 200 203 207 211
241 285 183 172 192 188 187 170 174 220 262 279 106 252 270 235 258 279 264 277 291 310 318 276 285 251 190 188 195 189 188 193 200 204 207 210 213 210 210 212 206 208 208 212
220 269 267 203 159 155 173 188 225 253 142 324 268 272 286 245 258 20 306 302 296 341 339 315 305 243 196 195 197 199 201 203 210 205 209 213 215 215 213 217 219 219 216 217
301 287 191 35 339 273 187 136 109 308 206 247 249 272 265 278 274 281 294 318 329 339 318 330 330 306 227 211 212 211 215 215 218 219 217 214 218 222 222 223 222 221 221 218
39 219 265 39 220 253 262 254 221 269 203 254 257 244 266 273 222 242 297 305 298 298 330 330 312 316 271 239 226 222 222 225 224 225 223 221 224 223 221 222 225 225 222 219
196 222 223 256 225 231 166 249 243 241 249 238 256 252 267 271 268 263 277 287 288 279 292 285 288 316 262 239 237 235 235 233 233 231 224 225 223 221 220 221 225 224 222 220
162 239 277 282 287 334 212 237 238 247 256 257 261 262 249 282 288 276 271 252 260 266 284 296 328 313 296 276 262 252 247 244 243 233 228 224 223 223 223 222 222 222 220 219
334 252 255 264 282 292 284 271 276 256 259 259 256 269 268 277 281 293 306 350 12 36 30 14 3 352 359 355 348 332 298 272 256 242 231 224 220 225 224 221 220 221 220 218
210 260 267 278 288 283 283 289 287 275 266 255 262 272 281 275 284 354 6 29 28 25 13 357 345 349 350 350 347 343 338 314 279 252 236 230 228 224 221 219 219 218 219 218
297 283 283 272 282 281 285 282 267 281 289 281 283 285 334 21 9 3 31 23 14 2 352 347 339 347 345 339 338 335 335 334 312 275 247 244 238 228 218 214 212 211 212 211
251 256 250 272 275 297 282 261 277 278 319 331 317 29 9 13 6 349 18 8 359 349 342 340 344 342 333 329 330 331 330 332 325 287 266 248 234 226 222 211 208 203 204 203
256 259 257 274 293 273 271 212 101 57 72 29 55 32 17 354 336 324 355 352 348 337 335 343 335 325 326 326 324 325 329 327 338 321 285 258 238 224 217 209 205 199 199 202
222 244 265 224 220 282 290 350 14 9 53 36 10 0 355 340 327 316 351 344 330 321 328 326 319 316 312 318 321 322 327 324 337 341 321 291 251 232 217 208 204 198 196 197
145 207 229 340 256 236 101 305 244 252 248 235 211 299 328 334 341 316 337 335 321 321 326 317 316 318 315 316 318 316 319 325 330 331 338 323 283 244 225 216 206 202 201 199
15 0 188 253 254 286 226 306 301 59 282 329 160 214 253 282 278 291 309 312 317 311 310 314 321 315 312 320 322 315 316 318 321 333 316 318 286 254 238 224 211 203 194 191
154 158 229 55 106 272 16 354 112 222 276 272 210 258 275 268 286 287 292 300 303 309 310 311 305 302 311 310 314 309 308 317 320 319 315 293 268 249 243 226 204 202 192 182
266 199 215 191 215 310 319 289 280 274 257 224 224 244 242 279 283 292 294 293 295 299 308 309 309 310 307 309 311 306 309 317 315 302 299 293 279 233 223 212 203 190 193 189
243 238 217 28 264 262 265 272 281 283 251 237 234 246 237 257 273 281 283 289 298 302 300 305 309 305 304 310 307 304 308 311 314 306 295 282 267 243 226 212 205 193 193 195
232 126 225 253 268 273 270 262 263 252 238 240 228 239 267 259 275 276 280 279 280 281 286 294 297 300 297 306 301 301 304 307 303 298 291 274 257 231 216 213 207 209 214 201
226 243 248 254 264 262 273 278 250 222 253 232 278 285 268 263 277 288 283 283 285 290 294 294 291 290 290 295 295 301 302 299 293 288 287 271 247 229 217 211 218 226 230 222